| time (UTC) | temp F | wind direction | speed knots | gust knots | rain 1hr in | rain 24hr in | rain mn in | humidity % | barometer mb |
| 20260505093004 | 32 | 29 | 0.0 | 0.0 | 0.00 | 0.06 | 0.05 | 92 | 1004.9 |
| 20260505091621 | 33 | 29 | 0.0 | 0.0 | 0.00 | 0.06 | 0.05 | 91 | 1004.5 |
| 20260505090122 | 33 | 29 | 0.0 | 0.0 | 0.00 | 0.06 | 0.05 | 91 | 1004.5 |
| 20260505084614 | 33 | 29 | 0.0 | 0.0 | 0.01 | 0.06 | 0.05 | 91 | 1004.3 |
| 20260505083107 | 33 | 29 | 0.0 | 0.0 | 0.01 | 0.06 | 0.05 | 91 | 1004.1 |
| 20260505081601 | 34 | 29 | 0.0 | 0.0 | 0.01 | 0.06 | 0.05 | 90 | 1004.2 |
| 20260505080059 | 35 | 28 | 0.0 | 0.0 | 0.02 | 0.06 | 0.05 | 90 | 1004.2 |
| 20260505074549 | 35 | 29 | 0.0 | 0.0 | 0.02 | 0.05 | 0.04 | 90 | 1004.3 |
| 20260505073054 | 35 | 29 | 0.0 | 0.0 | 0.03 | 0.05 | 0.04 | 90 | 1004.4 |
| 20260505071549 | 36 | 30 | 0.0 | 0.0 | 0.04 | 0.05 | 0.04 | 89 | 1004.3 |
| 20260505070050 | 36 | 5 | 0.0 | 0.0 | 0.03 | 0.04 | 0.03 | 88 | 1004.1 |
| 20260505064539 | 37 | 5 | 0.0 | 0.0 | 0.02 | 0.03 | 0.02 | 86 | 1004.0 |
| 20260505063040 | 38 | 5 | 0.0 | 0.0 | 0.01 | 0.02 | 0.01 | 85 | 1004.3 |
| 20260505061533 | 39 | 5 | 0.0 | 0.0 | 0.00 | 0.01 | 0.00 | 84 | 1004.2 |
| 20260505060051 | 40 | 5 | 0.0 | 0.0 | 0.00 | 0.01 | 0.00 | 84 | 1003.9 |
| 20260505054526 | 41 | 72 | 0.0 | 0.0 | 0.00 | 0.01 | 0.01 | 84 | 1003.6 |
| 20260505053022 | 43 | 46 | 0.0 | 0.0 | 0.00 | 0.01 | 0.01 | 82 | 1003.1 |
| 20260505051521 | 44 | 360 | 0.0 | 0.0 | 0.00 | 0.01 | 0.01 | 84 | 1003.2 |
| 20260505041514 | 45 | 178 | 0.0 | 0.0 | 0.00 | 0.01 | 0.01 | 76 | 1002.5 |
| 20260505040020 | 45 | 178 | 0.0 | 0.0 | 0.00 | 0.01 | 0.01 | 76 | 1002.4 |
| 20260505034512 | 45 | 178 | 0.0 | 0.0 | 0.00 | 0.01 | 0.01 | 75 | 1002.3 |
| 20260505033011 | 45 | 178 | 0.0 | 0.0 | 0.00 | 0.01 | 0.01 | 75 | 1002.3 |
| 20260505031509 | 45 | 178 | 0.0 | 0.0 | 0.00 | 0.01 | 0.01 | 75 | 1002.0 |
| 20260505030007 | 44 | 178 | 0.0 | 0.0 | 0.00 | 0.01 | 0.01 | 76 | 1001.8 |
| 20260505024506 | 44 | 178 | 0.0 | 0.0 | 0.00 | 0.01 | 0.01 | 77 | 1001.5 |
| 20260505023006 | 44 | 178 | 0.0 | 0.0 | 0.00 | 0.01 | 0.01 | 76 | 1001.4 |
| 20260505021505 | 45 | 178 | 0.0 | 0.0 | 0.00 | 0.01 | 0.01 | 73 | 1001.1 |
| 20260505020005 | 46 | 178 | 0.0 | 0.0 | 0.00 | 0.01 | 0.01 | 72 | 1000.9 |
| 20260505014505 | 47 | 178 | 0.0 | 0.0 | 0.00 | 0.01 | 0.01 | 72 | 1000.9 |
| 20260505013004 | 47 | 360 | 0.0 | 0.0 | 0.00 | 0.01 | 0.01 | 72 | 1000.8 |
| 20260505011503 | 47 | 199 | 0.0 | 0.0 | 0.00 | 0.01 | 0.01 | 72 | 1000.8 |
| 20260505010004 | 47 | 204 | 0.0 | 0.0 | 0.00 | 0.01 | 0.01 | 73 | 1000.8 |
| 20260505004506 | 47 | 218 | 0.0 | 0.0 | 0.00 | 0.01 | 0.01 | 73 | 1000.7 |
| 20260505003002 | 47 | 198 | 0.0 | 0.0 | 0.00 | 0.01 | 0.01 | 72 | 1000.8 |
| 20260505001502 | 47 | 200 | 0.0 | 1.7 | 0.00 | 0.01 | 0.01 | 73 | 1000.6 |
| 20260505000107 | 48 | 205 | 0.0 | 4.3 | 0.00 | 0.01 | 0.01 | 69 | 1000.6 |
| 20260504234559 | 51 | 267 | 0.0 | 7.0 | 0.00 | 0.01 | 0.01 | 59 | 1000.6 |
| 20260504233102 | 51 | 251 | 0.0 | 0.9 | 0.00 | 0.01 | 0.01 | 57 | 1000.4 |
| 20260504231558 | 52 | 302 | 0.0 | 5.2 | 0.00 | 0.01 | 0.01 | 54 | 999.9 |
| 20260504230059 | 53 | 334 | 0.0 | 0.9 | 0.00 | 0.01 | 0.01 | 52 | 999.8 |
| 20260504224558 | 54 | 343 | 0.0 | 4.3 | 0.00 | 0.01 | 0.01 | 50 | 999.6 |
| 20260504223115 | 56 | 293 | 0.0 | 5.2 | 0.00 | 0.01 | 0.01 | 50 | 999.3 |
| 20260504221558 | 54 | 328 | 0.0 | 2.6 | 0.01 | 0.01 | 0.01 | 53 | 999.5 |
| 20260504220055 | 52 | 338 | 0.0 | 1.7 | 0.01 | 0.01 | 0.01 | 63 | 999.6 |
| 20260504214555 | 50 | 290 | 0.0 | 0.0 | 0.01 | 0.01 | 0.01 | 66 | 1000.4 |
| 20260504213056 | 49 | 338 | 0.0 | 5.2 | 0.01 | 0.01 | 0.01 | 66 | 1000.5 |
| 20260504211634 | 51 | 338 | 0.0 | 2.6 | 0.00 | 0.00 | 0.00 | 61 | 1000.8 |
| 20260504210053 | 52 | 196 | 0.0 | 0.9 | 0.00 | 0.00 | 0.00 | 51 | 1000.3 |
| 20260504204550 | 52 | 196 | 0.0 | 0.9 | 0.00 | 0.00 | 0.00 | 57 | 1000.2 |
| 20260504203048 | 53 | 91 | 0.0 | 0.9 | 0.00 | 0.00 | 0.00 | 46 | 1000.2 |
| 20260504201547 | 54 | 40 | 0.0 | 5.2 | 0.00 | 0.00 | 0.00 | 45 | 1000.1 |
| 20260504200047 | 56 | 350 | 0.9 | 10.4 | 0.00 | 0.00 | 0.00 | 36 | 1000.0 |
| 20260504194551 | 59 | 350 | 0.0 | 4.3 | 0.00 | 0.00 | 0.00 | 34 | 999.8 |
| 20260504193047 | 59 | 351 | 0.0 | 7.0 | 0.00 | 0.00 | 0.00 | 34 | 999.9 |
| 20260504191605 | 59 | 288 | 1.7 | 11.3 | 0.00 | 0.00 | 0.00 | 34 | 1000.0 |
| 20260504190052 | 63 | 347 | 0.0 | 5.2 | 0.00 | 0.00 | 0.00 | 27 | 999.2 |
| 20260504184550 | 62 | 259 | 0.0 | 3.5 | 0.00 | 0.00 | 0.00 | 29 | 999.0 |
| 20260504183044 | 62 | 267 | 0.0 | 1.7 | 0.00 | 0.00 | 0.00 | 30 | 999.1 |
| 20260504181542 | 62 | 256 | 0.0 | 13.0 | 0.00 | 0.00 | 0.00 | 26 | 999.1 |
| 20260504180042 | 64 | 250 | 0.0 | 4.3 | 0.00 | 0.00 | 0.00 | 25 | 999.2 |
| 20260504174544 | 65 | 230 | 0.0 | 1.7 | 0.00 | 0.00 | 0.00 | 25 | 999.4 |
| 20260504173037 | 65 | 311 | 0.0 | 1.7 | 0.00 | 0.00 | 0.00 | 27 | 999.6 |
| 20260504171537 | 63 | 239 | 0.0 | 7.8 | 0.00 | 0.00 | 0.00 | 26 | 999.8 |
| 20260504120104 | 53 | 255 | 0.9 | 6.1 | 0.00 | 0.00 | 0.00 | 26 | 999.6 |